Stevens Point, WI

10:09 PM CST on February 12, 2016 (GMT -0600)
Stevens Point Municipal

Weather History for KSTE - February, 2013

Change the Weather History Date:

Friday, February 8, 2013

  Actual Average Record
Temperature  
Mean Temperature 10 °F -  
Max Temperature 23 °F 26 °F 50 °F (1987)
Min Temperature -3 °F 5 °F -27 °F (1951)
Degree Days  
Heating Degree Days 54    
Moisture  
Dew Point 7 °F    
Average Humidity 76    
Maximum Humidity 93    
Minimum Humidity 51    
Precipitation  
Precipitation 0.01 in - - ()
Sea Level Pressure  
Sea Level Pressure 30.29 in    
Wind  
Wind Speed 6 mph (North)    
Max Wind Speed 13 mph    
Max Gust Speed 20 mph    
Visibility 10 miles    
Events      
Averages and records for this station are not official NWS values.
T = Trace of Precipitation, MM = Missing Value Source: NWS Daily Summary

Daily Weather History Graph

Daily Weather History Graph

Search for Another Location

Airport or City:

Trip Planner

Search our weather history database for the weather conditions in past years. The results will help you decide how hot, cold, wet, or windy it might be!

Date:

Astronomy

Feb. 08, 2013 Rise Set
Actual Time 7:07 AM CST 5:17 PM CST
Civil Twilight 6:37 AM CST 5:47 PM CST
Nautical Twilight 6:02 AM CST 6:22 PM CST
Astronomical Twilight 5:29 AM CST 6:56 PM CST
Moon 5:38 AM CST (2/8) 3:49 PM CST (2/8)
Length of Visible Light 11h 10m
Length of Day
10h 09m
Waning Crescent, 3% of the Moon is Illuminated
Feb 8
Waning Crescent
Feb 10
New
Feb 17
First Quarter
Feb 25
Full
Mar 4
Last Quarter

Hourly Weather History & Observations

Time (CST) Temp. Windchill Dew Point Humidity Pressure Visibility Wind Dir Wind Speed Gust Speed Precip Events Conditions
12:15 AM 20.7 °F 9.5 °F 17.2 °F 87% 30.15 in 10.0 mi North 10.4 mph - N/A   Overcast
12:35 AM 20.3 °F 9.0 °F 16.5 °F 85% 30.16 in 10.0 mi North 10.4 mph - N/A   Overcast
12:55 AM 20.3 °F 9.0 °F 16.2 °F 84% 30.16 in 10.0 mi North 10.4 mph - N/A   Overcast
1:15 AM 20.1 °F 9.5 °F 16.2 °F 85% 30.16 in 10.0 mi North 9.2 mph - N/A   Overcast
1:35 AM 19.9 °F 8.6 °F 15.6 °F 83% 30.17 in 5.0 mi North 10.4 mph - N/A   Haze
1:55 AM 19.4 °F 7.2 °F 14.9 °F 83% 30.17 in 10.0 mi North 11.5 mph - N/A   Overcast
2:15 AM 19.4 °F 6.6 °F 14.4 °F 81% 30.18 in 10.0 mi North 12.7 mph 17.3 mph N/A   Overcast
2:35 AM 19.0 °F 7.5 °F 13.6 °F 79% 30.18 in 10.0 mi North 10.4 mph 17.3 mph N/A   Overcast
2:55 AM 18.5 °F 6.8 °F 13.1 °F 79% 30.18 in 10.0 mi North 10.4 mph 19.6 mph N/A   Overcast
3:35 AM 17.1 °F 7.6 °F 11.8 °F 80% 30.19 in 10.0 mi North 6.9 mph 11.5 mph N/A   Mostly Cloudy
3:55 AM 16.0 °F 5.3 °F 11.1 °F 81% 30.20 in 10.0 mi North 8.1 mph - N/A   Clear
4:35 AM 14.4 °F 5.5 °F 9.5 °F 81% 30.22 in 10.0 mi North 5.8 mph - N/A   Clear
4:38 AM 14.0 °F 5.1 °F 8.6 °F 79% 30.22 in 10.0 mi North 5.8 mph - N/A   Clear
4:55 AM 13.8 °F 8.0 °F 9.7 °F 84% 30.22 in 10.0 mi NNW 3.5 mph - N/A   Clear
5:15 AM 13.1 °F 2.8 °F 9.1 °F 84% 30.23 in 10.0 mi North 6.9 mph - N/A   Clear
5:35 AM 12.6 °F 6.5 °F 8.4 °F 83% 30.23 in 10.0 mi North 3.5 mph - N/A   Clear
6:15 AM 10.4 °F 2.2 °F 7.5 °F 88% 30.25 in 10.0 mi NNW 4.6 mph - N/A   Clear
6:35 AM 10.2 °F 2.0 °F 7.0 °F 87% 30.26 in 10.0 mi NNW 4.6 mph - N/A   Clear
6:55 AM 9.5 °F 1.2 °F 6.6 °F 88% 30.27 in 10.0 mi NNW 4.6 mph - N/A   Clear
7:15 AM 9.5 °F -1.5 °F 5.9 °F 85% 30.28 in 10.0 mi NNW 6.9 mph - N/A   Clear
7:35 AM 9.5 °F -1.5 °F 5.9 °F 85% 30.29 in 10.0 mi North 6.9 mph - N/A   Clear
7:55 AM 9.7 °F -1.3 °F 5.7 °F 84% 30.30 in 10.0 mi NNW 6.9 mph - N/A   Clear
8:15 AM 10.4 °F -1.5 °F 5.9 °F 82% 30.30 in 10.0 mi NNW 8.1 mph - N/A   Clear
8:35 AM 11.1 °F -0.6 °F 6.3 °F 81% 30.31 in 10.0 mi North 8.1 mph - N/A   Clear
8:55 AM 12.0 °F 2.7 °F 6.8 °F 80% 30.32 in 10.0 mi North 5.8 mph - N/A   Clear
9:15 AM 12.9 °F 2.6 °F 6.8 °F 77% 30.32 in 10.0 mi North 6.9 mph - N/A   Clear
9:35 AM 13.6 °F 3.5 °F 7.5 °F 77% 30.33 in 10.0 mi North 6.9 mph - N/A   Clear
9:55 AM 14.0 °F 6.5 °F 7.0 °F 74% 30.33 in 10.0 mi NNE 4.6 mph - N/A   Clear
10:15 AM 14.7 °F 4.8 °F 7.5 °F 73% 30.33 in 10.0 mi North 6.9 mph - N/A   Clear
10:35 AM 15.4 °F 5.6 °F 7.7 °F 71% 30.33 in 10.0 mi NNW 6.9 mph - N/A   Clear
10:55 AM 15.8 °F 10.2 °F 7.5 °F 70% 30.34 in 10.0 mi NNE 3.5 mph - N/A   Clear
11:15 AM 16.5 °F 8.1 °F 7.7 °F 68% 30.34 in 10.0 mi NNE 5.8 mph - N/A   Clear
11:35 AM 17.4 °F 9.1 °F 7.3 °F 65% 30.33 in 10.0 mi NE 5.8 mph - N/A   Clear
11:55 AM 18.0 °F 11.1 °F 7.3 °F 63% 30.33 in 10.0 mi NE 4.6 mph - N/A   Clear
12:15 PM 18.9 °F 10.8 °F 7.3 °F 61% 30.32 in 10.0 mi NE 5.8 mph - N/A   Clear
12:35 PM 19.4 °F - 7.3 °F 60% 30.32 in 10.0 mi Calm Calm - N/A   Clear
12:55 PM 20.1 °F - 7.2 °F 57% 30.32 in 10.0 mi Calm Calm - N/A   Clear
1:15 PM 20.7 °F - 7.7 °F 57% 30.32 in 10.0 mi Calm Calm - N/A   Clear
1:35 PM 21.6 °F - 6.6 °F 53% 30.32 in 10.0 mi Calm Calm - N/A   Clear
1:55 PM 21.9 °F - 7.0 °F 53% 30.32 in 10.0 mi Calm Calm - N/A   Clear
2:15 PM 23.0 °F - 7.3 °F 51% 30.32 in 10.0 mi Calm Calm - N/A   Clear
2:35 PM 21.4 °F 16.6 °F 7.9 °F 56% 30.32 in 10.0 mi WSW 3.5 mph - N/A   Clear
2:55 PM 22.5 °F - 7.0 °F 52% 30.31 in 10.0 mi Calm Calm - N/A   Clear
3:15 PM 22.6 °F - 6.8 °F 51% 30.31 in 10.0 mi Calm Calm - N/A   Clear
3:35 PM 22.5 °F - 7.2 °F 52% 30.32 in 10.0 mi Calm Calm - N/A   Clear
3:55 PM 22.5 °F - 8.1 °F 54% 30.31 in 10.0 mi Calm Calm - N/A   Clear
4:15 PM 21.2 °F 14.9 °F 9.3 °F 60% 30.31 in 10.0 mi SE 4.6 mph - N/A   Clear
4:35 PM 21.0 °F 14.6 °F 10.2 °F 63% 30.31 in 10.0 mi SSE 4.6 mph - N/A   Clear
4:55 PM 19.8 °F 14.7 °F 10.0 °F 66% 30.31 in 10.0 mi South 3.5 mph - N/A   Clear
5:15 PM 18.3 °F 13.1 °F 10.6 °F 72% 30.31 in 10.0 mi SSW 3.5 mph - N/A   Clear
5:35 PM 17.2 °F - 10.8 °F 76% 30.31 in 10.0 mi Calm Calm - N/A   Clear
5:55 PM 16.3 °F - 9.3 °F 74% 30.32 in 10.0 mi Calm Calm - N/A   Clear
6:15 PM 13.6 °F - 9.5 °F 84% 30.32 in 10.0 mi Calm Calm - N/A   Clear
6:35 PM 11.5 °F - 9.9 °F 93% 30.32 in 10.0 mi Calm Calm - N/A   Clear
7:15 PM 8.6 °F - 6.8 °F 92% 30.32 in 10.0 mi Calm Calm - N/A   Clear
7:35 PM 7.2 °F - 5.0 °F 91% 30.32 in 10.0 mi Calm Calm - N/A   Clear
7:55 PM 8.6 °F - 6.4 °F 91% 30.33 in 7.0 mi Calm Calm - N/A   Clear
8:15 PM 5.7 °F - 3.2 °F 89% 30.33 in 10.0 mi Calm Calm - N/A   Clear
8:35 PM 5.7 °F - 3.4 °F 90% 30.33 in 7.0 mi Calm Calm - N/A   Clear
8:55 PM 5.0 °F - 2.5 °F 89% 30.33 in 7.0 mi Calm Calm - N/A   Clear
9:15 PM 1.9 °F - -1.3 °F 86% 30.33 in 10.0 mi Calm Calm - N/A   Clear
9:55 PM 2.3 °F - -0.6 °F 88% 30.33 in 10.0 mi Calm Calm - N/A   Clear
10:15 PM 2.3 °F - -0.6 °F 88% 30.33 in 10.0 mi Calm Calm - N/A   Clear
10:35 PM 2.1 °F - -0.9 °F 87% 30.33 in 10.0 mi Calm Calm - N/A   Clear
10:55 PM -0.6 °F - -4.0 °F 85% 30.33 in 10.0 mi Calm Calm - N/A   Clear
11:15 PM -2.2 °F - -5.4 °F 86% 30.32 in 10.0 mi Calm Calm - N/A   Clear
11:35 PM -1.8 °F - -5.3 °F 85% 30.32 in 10.0 mi Calm Calm - N/A   Clear
11:55 PM -3.1 °F - -6.5 °F 85% 30.33 in 10.0 mi Calm Calm - N/A   Clear